Weather History for KSMX - July, 2013

Change the Weather History Date:

Tuesday, July 9, 2013

  Actual Average Record
Temperature  
Mean Temperature 66 °F 63 °F  
Max Temperature 76 °F 73 °F 91 °F (1959)
Min Temperature 56 °F 53 °F 43 °F (1935)
Degree Days  
Heating Degree Days 0 3  
Month to date heating degree days 1 27  
Since 1 June heating degree days 60 168  
Since 1 July heating degree days 1 27  
Cooling Degree Days 1 1  
Month to date cooling degree days 26 4  
Year to date cooling degree days 70 20  
Since 1 June cooling degree days 59 10  
Growing Degree Days 15 (Base 50)    
Moisture  
Dew Point 55 °F    
Average Humidity 72    
Maximum Humidity 93    
Minimum Humidity 50    
Precipitation  
Precipitation 0.00 in 0.00 in 0.62 in (1950)
Month to date precipitation 0.00 0.01  
Year to date precipitation 2.49 9.72  
Since 1 July precipitation 0.00  
Sea Level Pressure  
Sea Level Pressure 30.00 in    
Wind  
Wind Speed 5 mph (NW)    
Max Wind Speed 14 mph    
Max Gust Speed -    
Visibility 5 miles    
Events Fog    
T = Trace of Precipitation, MM = Missing Value Source: NWS Daily Summary

Daily Weather History Graph

Daily Weather History Graph

Search for Another Location

Airport or City:

Trip Planner

Search our weather history database for the weather conditions in past years. The results will help you decide how hot, cold, wet, or windy it might be!

Date:

Astronomy

Jul. 09, 2013 Rise Set
Actual Time 5:55 AM PDT 8:17 PM PDT
Civil Twilight 5:26 AM PDT 8:47 PM PDT
Nautical Twilight 4:50 AM PDT 9:23 PM PDT
Astronomical Twilight 4:11 AM PDT 10:02 PM PDT
Moon 7:19 AM PDT (7/9) 9:04 PM PDT (7/9)
Length of Visible Light 15h 20m
Length of Day
14h 21m
New Moon, 2% of the Moon is Illuminated
Jul 9
New Moon
Jul 15
First Quarter
Jul 22
Full
Jul 29
Last Quarter
Aug 6
New

Hourly Weather History & Observations

Time (PDT) Temp. Dew Point Humidity Pressure Visibility Wind Dir Wind Speed Gust Speed Precip Events Conditions
12:51 AM 57.9 °F 55.0 °F 90% 29.99 in 2.5 mi North 4.6 mph - N/A   Overcast
12:56 AM 57.2 °F 55.4 °F 94% 29.99 in 1.2 mi North 3.5 mph - N/A   Overcast
1:29 AM 57.2 °F 53.6 °F 88% 29.99 in 0.5 mi North 3.5 mph - N/A Fog Fog
1:51 AM 57.0 °F 54.0 °F 89% 29.99 in 0.8 mi NE 4.6 mph - N/A   Mist
2:29 AM 57.2 °F 53.6 °F 88% 29.98 in 1.2 mi NNW 4.6 mph - N/A   Overcast
2:44 AM 55.4 °F 53.6 °F 94% 29.98 in 0.5 mi NW 3.5 mph - N/A Fog Fog
2:51 AM 55.9 °F 54.0 °F 93% 29.99 in 0.5 mi Calm Calm - N/A Fog Fog
3:04 AM 57.2 °F 55.4 °F 94% 29.98 in 0.2 mi Calm Calm - N/A Fog Fog
3:34 AM 57.2 °F 55.4 °F 94% 29.98 in 0.5 mi Calm Calm - N/A Fog Fog
3:51 AM 57.0 °F 55.0 °F 93% 29.99 in 0.8 mi West 3.5 mph - N/A   Mist
4:11 AM 57.2 °F 55.4 °F 94% 29.98 in 1.2 mi NW 3.5 mph - N/A   Overcast
4:38 AM 57.2 °F 55.4 °F 94% 29.97 in 0.8 mi Calm Calm - N/A   Mist
4:51 AM 57.0 °F 55.0 °F 93% 29.98 in 0.5 mi West 3.5 mph - N/A Fog Fog
5:05 AM 57.2 °F 55.4 °F 94% 29.98 in 0.2 mi Calm Calm - N/A Fog Fog
5:51 AM 55.9 °F 54.0 °F 93% 29.99 in 0.2 mi Calm Calm - N/A Fog Fog
6:51 AM 55.9 °F 55.0 °F 97% 29.99 in 0.2 mi Calm Calm - N/A Fog Fog
7:48 AM 55.4 °F 53.6 °F 94% 30.00 in 0.5 mi Calm Calm - N/A Fog Fog
7:51 AM 55.9 °F 54.0 °F 93% 30.01 in 0.8 mi NW 3.5 mph - N/A   Overcast
8:51 AM 57.0 °F 54.0 °F 89% 30.02 in 2.0 mi NW 4.6 mph - N/A   Overcast
9:27 AM 59.0 °F 53.6 °F 82% 30.02 in 5.0 mi Variable 5.8 mph - N/A   Haze
9:51 AM 61.0 °F 55.0 °F 81% 30.02 in 8.0 mi NW 4.6 mph - N/A   Overcast
10:22 AM 64.4 °F 55.4 °F 73% 30.02 in 10.0 mi Variable 3.5 mph - N/A   Scattered Clouds
10:51 AM 66.9 °F 54.0 °F 63% 30.02 in 10.0 mi Variable 4.6 mph - N/A   Scattered Clouds
11:51 AM 72.0 °F 55.0 °F 55% 30.02 in 10.0 mi Variable 3.5 mph - N/A   Clear
12:51 PM 73.9 °F 55.9 °F 53% 30.01 in 10.0 mi NW 10.4 mph - N/A   Clear
1:51 PM 75.0 °F 55.0 °F 50% 30.01 in 10.0 mi NW 10.4 mph - N/A   Clear
2:51 PM 75.0 °F 55.9 °F 51% 30.02 in 10.0 mi West 12.7 mph - N/A   Clear
3:51 PM 73.9 °F 55.9 °F 53% 30.01 in 10.0 mi WNW 9.2 mph - N/A   Clear
4:51 PM 69.1 °F 55.0 °F 61% 30.00 in 10.0 mi WNW 11.5 mph - N/A   Clear
5:51 PM 66.9 °F 55.0 °F 66% 30.00 in 10.0 mi NW 9.2 mph - N/A   Clear
6:51 PM 64.9 °F 55.0 °F 70% 30.00 in 10.0 mi WNW 5.8 mph - N/A   Clear
7:51 PM 63.0 °F 55.0 °F 75% 30.01 in 10.0 mi WNW 3.5 mph - N/A   Clear
8:51 PM 59.0 °F 54.0 °F 83% 30.01 in 10.0 mi WNW 4.6 mph - N/A   Clear
9:51 PM 57.0 °F 53.1 °F 87% 30.01 in 8.0 mi WNW 4.6 mph - N/A   Clear
10:03 PM 57.2 °F 53.6 °F 88% 30.02 in 8.0 mi WNW 5.8 mph - N/A   Scattered Clouds
10:12 PM 57.2 °F 53.6 °F 88% 30.02 in 5.0 mi NW 4.6 mph - N/A   Mostly Cloudy
10:51 PM 57.0 °F 55.0 °F 93% 30.02 in 4.0 mi Calm Calm - N/A   Overcast
11:51 PM 57.9 °F 55.0 °F 90% 30.02 in 1.8 mi WNW 4.6 mph - N/A   Overcast